Regional Weather Roundup
Issued by NWS

Home | Current Version | Previous Version | Graphics & Text | Print | Product List | Glossary On
Versions: 1 2 3 4 5 6 7 8 9 10 11 12 13 14 15 16 17 18 19 20 21 22 23 24 25 26 27 28 29 30 31 32 33 34 35 36 37 38 39 40 41 42 43 44 45 46 47 48 49 50
000
ASUS44 KMEG 021700
RWRTN
TENNESSEE HOURLY STATE WEATHER ROUNDUP
NATIONAL WEATHER SERVICE MEMPHIS TN
1200 PM CDT THU JUL 02 2015

TNZ002-004-019-021-049-052-054-088>092-021800-
WEST TENNESSEE

CITY           SKY/WX    TMP DP  RH WIND       PRES   REMARKS
MEMPHIS INTL   CLOUDY    80  69  69 SW12G26   29.93R
NWS MEMPHIS      N/A     79 N/A N/A MISG        N/A
JACKSON        PTSUNNY   80  70  71 SW13      29.91F
DYERSBURG        N/A    N/A N/A N/A MISG        N/A
PARIS          MOSUNNY   81  73  78 SW10      29.90F
LEXINGTON      PTSUNNY   79  72  78 SW10      29.92S
$$

TNZ008-025-027-028-033-062-065-066-021800-
NORTH MIDDLE TENNESSEE

CITY           SKY/WX    TMP DP  RH WIND       PRES   REMARKS
NASHVILLE      PTSUNNY   76  72  87 S9        29.93F
CLARKSVILLE    CLOUDY    80  73  79 SW9       29.89F
COOKEVILLE     SUNNY     73  72  94 S6        29.95F
CROSSVILLE     LGT RAIN  70  66  87 VRB3      30.00F
$$

TNZ061-075-076-078-094-096-097-021800-
SOUTH MIDDLE TENNESSEE

CITY           SKY/WX    TMP DP  RH WIND       PRES   REMARKS
FAYETTEVILLE   PTSUNNY   72  72 100 W5        29.98S
TULLAHOMA      MOSUNNY   73  68  83 SE3       29.99F
WINCHESTER     CLOUDY    72  70  94 S3        30.00R
COLUMBIA       MOSUNNY   77  72  83 S5        29.94S
SHELBYVILLE    MOSUNNY   79  73  83 S10       29.96F
$$

TNZ017-018-042-046-047-021800-
NORTHEAST TENNESSEE

CITY           SKY/WX    TMP DP  RH WIND       PRES   REMARKS
TRI CITIES     LGT RAIN  70  67  90 SW14      29.98F
ELIZABETHTON   PTSUNNY   68  66  94 CALM      29.99F
$$

TNZ012-013-036-069-073-074-021800-
CENTRAL EAST TENNESSEE

CITY           SKY/WX    TMP DP  RH WIND       PRES   REMARKS
KNOXVILLE      CLOUDY    71  66  84 S10       29.98S
OAK RIDGE      LGT RAIN  70  67  90 VRB5      30.00R
GATLINBURG     MOSUNNY   70  66  88 S3        29.97F
$$

TNZ083-085-099-021800-
SOUTHEAST TENNESSEE

CITY           SKY/WX    TMP DP  RH WIND       PRES   REMARKS
CHATTANOOGA    TSTM      70  69  97 NE5       30.00F FOG
$$

SKY/WX REPORTED AS FAIR MEANS FEW OR NO CLOUDS BELOW
12 THOUSAND FEET.



USA.gov is the U.S. government's official web portal to all federal, state and local government web resources and services.